Location: Angola by the Bay
(38.6709°N, 75.1746°W)
Time: 11:53:20
(UTC+00:00)

ISS - Visible Passes

Search period start: 10 October 2024 00:00
Search period end: 20 October 2024 00:00
Orbit: 412 x 424 km, 51.6° (Epoch: 10 October)

Date Brightness Start Highest point End Pass type
(mag) Time Alt. Az. Time Alt. Az. Time Alt. Az.
14 Oct -0.9 10:33:32 10° S 10:35:53 18° SE 10:38:15 10° E visible
16 Oct -3.1 10:32:35 10° SW 10:35:51 57° SE 10:39:07 10° ENE visible
17 Oct -2.0 09:45:10 13° SSW 09:47:35 30° SE 09:50:33 10° ENE visible
18 Oct -1.1 08:59:34 17° SE 08:59:34 17° SE 09:01:35 10° E visible
18 Oct -3.4 10:32:36 10° WSW 10:35:48 46° NW 10:39:02 10° NE visible
19 Oct -3.9 09:46:41 55° WSW 09:47:19 83° NW 09:50:39 10° NE visible
